Погода в Рогатике

Россия / Орловская область     52°05′08″N   37°45′12″E
темп.,
°C
ветер,
м/с
пор.,
м/с
влажн.,
%
обл.,
%
осадки,
мм/ч
давл.,
гПа
погр.,
м
18 апреля, вс
вс1800:00+5ююз239250 1.5 101958
03:00+4ююз3492100 1.7 101898
06:00+4ю229141 0.1 101837
09:00+7ююз237616 0.3 1017549
12:00+10ю3360100 1.0 10181219
15:00+11ю3353100 1.9 10171366
18:00+10юв22575 0.1 10171014
21:00+7юв2379100 0.1 101739
19 апреля, пн
пн1900:00+7вюв2384100 0.4 1017125
03:00+6ююв3695100 4.4 1017488
06:00+6в1292100 1.4 1017146
09:00+8в348398 1.4 1017515
12:00+11в4465100 0.8 10161333
15:00+12всв336399 2.3 10161068
18:00+10в3572100 1.9 1015587
21:00+8всв4790100 2.7 1016282
20 апреля, вт
вт2000:00+7св379488 0.1 1015195
03:00+7всв369396 0.2 1015232
06:00+7в599391 0.2 1013351
09:00+9в6984100 0.3 1013606
12:00+10в71085100 0.1 1011849
15:00+9всв81288100 1.3 10081160
18:00+6св111994100 8.8 10011158
21:00+8в61297100 12.8 998411
21 апреля, ср
ср2100:00+9юв61393100 1.6 997613
03:00+9ююв7138974 2.4 996616
06:00+3зюз91496100 1.1 1000692
09:00+3зюз91496100 1.3 1005849
12:00+6зюз81285100 0.1 10091219
15:00+8юз71071100 0.3 10111302
18:00+7юз5977100 0.1 1014712
21:00+5ююз510855 0.2 1016251
22 апреля, чт
чт2200:00+5ю51385100 0.0 1016364
03:00+5ююз5138593 0.0 1017336
06:00+5ююз4118761 0.0 1018277
09:00+8ююз597745 0.1 1019454
12:00+13ююз9106299 0.6 10191580
15:00+14ююз7106099 1.4 10191629
18:00+13ююз596499 0.6 1019448
21:00+9ююв41082100 1.1 1020201